Location: Moscow
(30.9132°N, 94.8252°W)
Time: 05:58:38
(UTC+00:00)

Cosmos 2034 Rocket - Pass Details

Date: 15 November 2025
Orbit: 958 x 999 km, 82.9° (Epoch: 04 December)

Event Time Altitude Azimuth Distance (km) Brightness Sun altitude
Rises 00:49:25 0° 175° (S) 3,624 7.1 -18.9°
Reaches altitude 10° 00:51:56 10° 172° (S) 2,684 6.3 -19.4°
Maximum altitude 00:57:58 62° 92° (E) 1,074 3.9 -20.7°
Drops below altitude 10° 01:04:05 10° 13° (NNE) 2,719 6.1 -22.0°
Sets 01:06:38 0° 11° (N) 3,675 6.8 -22.5°
